Total_Precipitation_Accumulation
0.14 0.37 0.86 1.34 1.94 2.18 1.65 0.87 0.69 0.51 0.47 0.58 0.55 0.47 0.54 0.75 1.15 2.02 2.07 2.09 1.72 1.60 1.74 2.21 2.67 2.41 2.10 1.93 1.98 1.98 1.76 1.71 1.74 1.78 1.78 1.92 1.92 1.80 1.85 2.11 2.42 2.66 2.88 2.65 2.37 2.18 2.08 1.99 1.75
0.31 0.64 1.11 1.61 2.25 2.30 1.51 0.78 0.62 0.46 0.51 0.57 0.48 0.42 0.54 0.63 0.74 1.22 1.75 1.91 1.44 1.26 1.42 1.72 2.15 2.15 1.92 1.73 1.73 1.67 1.64 1.62 1.67 1.77 1.70 1.76 1.82 1.82 1.97 2.29 2.47 2.53 2.36 2.05 2.04 1.96 1.84 1.66 1.57
0.55 0.87 1.26 1.67 1.70 1.57 0.95 0.51 0.44 0.41 0.54 0.57 0.49 0.49 0.67 0.92 1.03 1.31 1.46 1.39 1.16 1.09 1.29 1.73 1.95 1.86 1.71 1.61 1.54 1.46 1.48 1.54 1.62 1.64 1.66 1.76 1.78 1.87 2.09 2.33 2.38 2.22 1.93 1.81 1.85 1.74 1.64 1.41 1.32
0.68 0.98 1.17 1.25 1.09 0.85 0.58 0.43 0.38 0.41 0.54 0.50 0.48 0.71 0.99 1.17 1.04 1.10 1.12 1.05 0.94 1.00 1.28 1.66 1.69 1.44 1.36 1.36 1.31 1.28 1.33 1.50 1.56 1.51 1.66 1.78 1.86 1.89 2.00 2.06 2.10 1.98 1.73 1.66 1.59 1.46 1.42 1.30 1.21
0.78 1.11 1.27 1.02 0.76 0.57 0.46 0.40 0.38 0.38 0.39 0.49 0.60 0.99 1.38 1.42 1.00 1.03 1.05 0.91 0.80 1.02 1.27 1.38 1.41 1.22 1.11 1.17 1.16 1.18 1.32 1.52 1.57 1.51 1.56 1.62 1.68 1.75 1.75 1.72 1.77 1.81 1.64 1.50 1.43 1.36 1.27 1.30 1.23
0.94 0.99 0.94 0.73 0.56 0.41 0.43 0.41 0.36 0.36 0.43 0.52 0.67 0.85 1.51 1.55 1.19 1.27 1.15 1.09 1.00 1.12 1.23 1.36 1.38 1.19 1.09 1.11 1.11 1.14 1.37 1.61 1.59 1.47 1.45 1.44 1.44 1.48 1.51 1.56 1.64 1.67 1.52 1.39 1.35 1.29 1.21 1.18 1.18
0.77 0.77 0.63 0.47 0.41 0.38 0.36 0.33 0.33 0.37 0.52 0.63 0.71 1.01 1.69 1.90 1.50 1.34 1.34 1.36 1.23 1.32 1.49 1.44 1.27 1.21 1.29 1.37 1.40 1.43 1.64 1.72 1.62 1.58 1.49 1.42 1.36 1.36 1.43 1.44 1.52 1.53 1.43 1.37 1.28 1.25 1.18 1.12 1.13
0.51 0.46 0.38 0.28 0.27 0.34 0.28 0.26 0.31 0.40 0.55 0.69 0.84 1.18 1.84 1.88 1.55 1.42 1.44 1.61 1.48 1.42 1.40 1.36 1.19 1.17 1.23 1.47 1.80 1.82 1.79 1.80 1.75 1.67 1.59 1.46 1.37 1.42 1.48 1.36 1.55 1.57 1.55 1.49 1.50 1.58 1.32 1.23 1.30
0.32 0.38 0.33 0.24 0.20 0.27 0.25 0.24 0.29 0.42 0.56 0.67 0.95 1.18 1.37 1.36 1.43 1.40 1.61 1.94 1.97 1.72 1.57 1.40 1.11 1.19 1.41 1.67 1.81 1.89 1.89 2.00 2.07 2.01 1.88 1.83 1.93 1.92 2.01 1.76 2.05 2.01 1.98 1.88 1.92 1.96 1.77 1.67 1.55
0.27 0.29 0.26 0.19 0.16 0.19 0.19 0.20 0.30 0.57 0.75 1.04 1.33 1.33 1.19 1.19 1.38 1.52 1.76 2.16 2.26 2.12 1.90 1.65 1.40 1.42 1.67 1.68 1.67 1.80 1.83 2.01 2.13 2.23 2.15 2.46 2.75 2.62 2.06 2.31 2.68 2.77 2.66 2.51 2.54 2.63 2.34 2.04 1.82
0.17 0.18 0.16 0.17 0.15 0.13 0.13 0.19 0.26 0.44 0.96 1.50 1.76 1.72 1.54 1.32 1.50 1.86 2.25 2.57 2.36 2.14 2.06 1.99 1.82 1.79 1.70 1.76 1.74 1.92 2.12 2.48 2.36 2.26 2.33 2.79 2.69 2.41 2.18 2.46 2.93 3.26 3.02 2.78 2.88 3.00 2.53 2.56 2.82
0.13 0.13 0.10 0.11 0.11 0.10 0.12 0.19 0.31 0.46 0.96 1.25 1.44 1.52 1.53 1.50 1.60 1.84 2.17 2.45 2.65 2.63 2.53 2.42 2.31 2.20 2.18 2.10 1.98 1.93 2.06 2.30 2.41 2.59 2.39 2.74 2.98 2.86 2.80 3.06 3.09 3.32 3.43 3.76 3.54 3.63 3.40 3.32 3.14
0.13 0.10 0.08 0.07 0.08 0.09 0.12 0.22 0.36 0.52 0.78 0.84 0.92 1.04 1.30 1.56 1.95 2.25 2.38 2.72 2.85 3.03 2.92 2.90 2.83 2.78 2.77 2.70 2.55 2.09 2.26 2.37 2.50 2.81 2.80 2.92 3.25 3.36 3.37 3.35 3.29 3.05 3.36 3.77 4.04 3.63 3.94 3.97 3.55
0.11 0.11 0.08 0.09 0.09 0.12 0.16 0.25 0.38 0.59 0.69 0.72 0.81 0.99 1.25 1.59 1.89 2.34 2.63 3.06 3.08 3.16 3.36 3.56 3.50 3.36 3.41 3.29 3.17 2.97 2.76 2.95 2.95 3.13 3.31 3.45 3.75 3.94 3.88 3.69 3.58 3.22 3.17 3.48 3.71 3.71 4.15 3.98 3.74
0.10 0.12 0.15 0.14 0.12 0.15 0.29 0.47 0.61 0.74 0.74 0.89 0.97 1.20 1.38 1.68 2.06 2.18 2.38 2.68 3.02 3.31 3.86 4.24 4.27 4.15 4.17 4.10 3.81 3.56 3.48 3.51 3.79 4.02 4.05 3.99 4.11 4.41 4.20 3.94 3.54 3.30 3.30 3.53 3.50 3.56 3.70 3.51 3.40
0.14 0.21 0.32 0.26 0.19 0.20 0.35 0.78 0.85 0.83 0.88 1.06 1.08 1.31 1.63 1.72 2.07 2.21 2.28 2.51 3.12 3.59 4.24 4.69 4.85 5.02 4.92 4.91 4.65 4.26 4.12 4.13 4.21 4.34 4.50 4.22 4.20 4.13 4.16 3.79 3.33 3.33 3.32 3.41 3.57 3.45 3.55 3.49 3.46
0.22 0.30 0.39 0.40 0.25 0.24 0.38 0.76 0.88 0.84 1.00 1.13 1.27 1.33 1.48 1.70 2.14 2.45 2.61 2.76 3.30 3.90 4.63 5.22 5.81 6.02 5.86 5.56 5.20 4.87 4.81 4.70 4.55 4.58 4.57 4.35 4.04 3.86 4.08 3.73 3.49 3.40 3.37 3.27 3.04 3.51 3.68 3.65 3.60
0.29 0.29 0.37 0.44 0.27 0.26 0.46 0.69 0.90 0.97 1.10 1.25 1.28 1.27 1.41 1.73 1.96 2.34 2.70 3.09 3.53 3.96 4.77 5.55 6.31 6.50 6.21 5.67 5.36 5.30 5.14 4.84 4.60 4.40 4.31 3.99 3.81 3.50 3.74 3.44 3.32 3.42 3.58 3.43 3.46 3.80 3.83 3.47 3.50
0.18 0.24 0.35 0.39 0.27 0.31 0.49 0.68 0.90 1.05 1.20 1.25 1.38 1.37 1.56 1.83 1.99 2.39 2.77 3.23 3.68 4.20 4.96 5.66 6.25 6.34 6.21 5.84 5.47 5.24 4.79 4.48 4.21 3.95 3.79 3.52 3.24 3.11 3.48 3.23 3.57 3.37 3.34 3.20 3.16 3.32 3.38 3.03 3.20
0.15 0.23 0.38 0.40 0.28 0.33 0.52 0.75 1.04 1.10 1.07 1.07 1.28 1.36 1.43 1.63 1.93 2.30 2.85 3.17 3.53 4.06 4.64 5.06 5.15 4.92 4.85 4.90 4.80 4.55 4.56 4.40 4.34 4.17 4.02 3.49 3.28 3.16 2.97 3.20 3.02 2.98 3.11 2.92 2.85 3.06 3.07 2.76 3.04
0.14 0.21 0.28 0.33 0.35 0.43 0.62 1.00 1.28 1.27 1.06 0.97 1.00 1.10 1.21 1.34 1.55 1.91 2.51 2.85 3.04 3.55 3.90 3.92 3.86 3.80 3.95 4.02 3.97 4.02 4.28 4.35 4.43 4.38 4.13 3.69 3.47 3.31 3.14 3.04 2.84 2.80 2.64 2.81 2.84 2.88 3.00 2.99 2.87
0.15 0.16 0.19 0.23 0.36 0.66 0.76 1.28 1.59 1.66 1.44 1.14 1.01 1.11 1.18 1.27 1.32 1.63 1.98 2.23 2.52 2.80 2.94 2.93 3.00 3.14 3.27 3.36 3.38 3.26 3.29 3.57 3.84 4.07 4.15 4.01 3.74 3.50 3.18 2.98 2.75 2.59 2.45 2.76 2.45 2.56 2.89 3.10 2.79
0.12 0.12 0.17 0.25 0.36 0.56 0.68 1.00 1.55 1.85 1.83 1.43 1.14 1.05 1.00 1.15 1.36 1.55 1.68 1.87 1.98 2.05 2.18 2.24 2.52 2.93 3.14 3.26 3.40 3.30 2.98 2.99 3.07 3.23 3.42 3.42 3.43 3.25 2.90 2.77 2.70 2.51 2.37 2.43 2.42 2.73 2.75 2.74 2.68
0.11 0.17 0.26 0.40 0.60 0.91 0.81 0.90 1.43 1.67 1.72 1.34 1.12 1.03 0.94 0.92 1.07 1.28 1.57 1.69 1.67 1.64 1.79 2.01 2.33 2.84 3.14 3.27 3.21 3.18 3.10 3.08 3.01 3.00 3.09 2.99 2.97 2.91 2.66 2.50 2.59 2.44 2.36 2.41 2.42 2.55 2.61 2.75 2.82
0.13 0.24 0.64 1.09 1.43 1.49 0.91 0.88 1.13 1.20 1.09 1.08 0.94 0.90 0.96 0.89 0.85 0.84 1.05 1.32 1.31 1.27 1.45 1.71 1.92 2.34 2.64 2.85 2.81 2.74 2.87 2.95 2.80 2.65 2.61 2.57 2.43 2.38 2.34 2.39 2.50 2.34 2.32 2.42 2.57 2.62 2.60 2.73 2.78
0.13 0.19 0.49 0.83 1.03 1.16 1.03 1.36 1.43 1.06 0.88 0.79 0.68 0.71 0.81 0.73 0.65 0.62 0.68 0.87 1.11 1.14 1.23 1.36 1.59 1.88 2.14 2.32 2.45 2.55 2.73 2.81 2.71 2.85 2.61 2.48 2.16 2.03 2.10 2.31 2.37 2.30 2.22 2.25 2.68 2.67 2.69 2.80 2.76
0.15 0.16 0.24 0.37 0.54 0.87 1.16 1.37 1.31 1.08 1.01 0.81 0.65 0.60 0.60 0.57 0.54 0.55 0.61 0.82 0.89 0.93 1.02 1.17 1.37 1.57 1.80 2.03 2.25 2.33 2.31 2.31 2.45 2.59 2.53 2.37 2.29 2.05 2.12 2.19 2.41 2.51 2.60 2.64 2.79 2.72 2.73 2.94 2.90
0.15 0.16 0.20 0.30 0.50 0.73 1.05 1.46 1.56 1.37 1.16 0.98 0.89 0.69 0.58 0.59 0.59 0.56 0.57 0.67 0.73 0.79 0.90 1.10 1.30 1.33 1.57 1.96 2.24 2.21 2.27 2.19 2.33 2.29 2.25 2.30 2.22 2.16 2.23 2.25 2.34 2.50 2.60 2.65 2.80 2.79 2.82 3.00 3.02
0.19 0.17 0.18 0.24 0.27 0.44 0.92 1.22 1.12 1.12 1.05 0.98 0.86 0.76 0.70 0.67 0.65 0.62 0.61 0.61 0.74 0.67 0.75 0.92 1.07 1.23 1.54 1.90 2.23 2.37 2.30 2.26 2.31 2.14 2.08 2.19 2.19 2.16 2.26 2.29 2.29 2.27 2.38 2.57 2.79 2.72 2.86 2.98 3.03
0.19 0.19 0.20 0.27 0.27 0.30 0.50 0.82 0.67 0.76 0.87 0.89 0.74 0.68 0.64 0.55 0.53 0.50 0.48 0.54 0.54 0.55 0.65 0.96 1.29 1.65 1.85 2.18 2.53 2.69 2.48 2.26 2.12 1.94 1.90 2.02 2.19 2.23 2.24 2.26 2.25 2.15 2.24 2.50 2.66 2.75 2.99 3.12 3.01